Location: Castiglione Fibocchi
(43.5333°N, 11.7667°E)
Time: 17:44:34
(UTC+00:00)

Timation 1 Rocket - Pass Details

Date: 15 August 2020
Orbit: 898 x 909 km, 70.0° (Epoch: 19 September)

Event Time Altitude Azimuth Distance (km) Brightness Sun altitude
Exits shadow 01:10:13 64° 273° (W) 993 4.3 -27.0°
Maximum altitude 01:10:39 66° 299° (WNW) 977 4.4 -27.0°
Drops below altitude 10° 01:16:36 10° 22° (NNE) 2,583 7.7 -26.4°
Sets 01:19:08 0° 25° (NNE) 3,528 8.7 -26.1°
